Retour au catalogue

STARLINK-34905

ActifCommunicationsVLEO
NORAD 65202·PAYLOAD·🇺🇸 United States

Lancé Aug 14, 2025 depuis Cape Canaveral Space Force Station

Loading…

Prochains Passages (prochaines 24 heures)

TLE

FraisSource: CelesTrak SupGP

Époque: Sep 15, 2026, 02:32 UTC

1 65202C 25176E   26258.10604167  .00069262  00000+0  20467-2 0  2587
2 65202  53.1592 348.8176 0001143  91.0929  89.8835 15.34350597    12

Suivez STARLINK-34905 en temps réel avec AllMySat

Download on the App Store